Regional Weather Roundup
Issued by NWS

Home | Current Version | Previous Version | Text Only | Print | Product List | Glossary On
Versions: 1 2 3 4 5 6 7 8 9 10 11 12 13 14 15 16 17 18 19 20 21 22 23 24 25 26 27 28 29 30 31 32 33 34 35 36 37 38 39 40 41 42 43 44 45 46 47 48 49 50
000
ASUS45 KABQ 281310
RWRNM
WEATHER ROUNDUP FOR NEW MEXICO
NATIONAL WEATHER SERVICE ALBUQUERQUE NM
600 AM MST SUN DEC 28 2014

NOTE: "FAIR" MEANS FEW OR NO CLOUDS BELOW 12,000 FEET AGL WITH NO
       SIGNIFICANT WEATHER OR OBSTRUCTIONS TO VISION.

      THIS PRODUCT IS RELEASED AS TWO VERSIONS.  ONE VERSION NEAR
      THE TOP OF THE HOUR CONTAINING PRELIMINARY DATA FROM ALBUQUERQUE
      AND OTHER STATIONS.  A FINAL VERSION WITH ADDITIONAL DATA IS
      ISSUED ABOUT 10 MINUTES AFTER THE HOUR.

NMZ501-503-504-510>518-281400-
NORTHWEST PLATEAU/NORTHCENTRAL MOUNTAINS

CITY           SKY/WX    TMP DP  RH WIND       PRES   REMARKS
FARMINGTON     CLEAR      6   2  83 E6        30.22F WCI  -4
LOS ALAMOS     MOCLDY    11   6  80 CALM      30.12S
SANTA FE       PTCLDY    14   7  73 N12       30.14R WCI   0
TAOS           MOCLDY    -4  -8  84 N3        30.14S
ANGEL FIRE     FAIR     -13 -17  81 W3        30.06R

$$
NMZ402-403-502-505>509-281400-
WESTCENTRAL MOUNTAINS/SOUTHWEST MOUNTAINS

CITY           SKY/WX    TMP DP  RH WIND       PRES   REMARKS
GALLUP         PTCLDY     0  -5  79 NE6       30.20F WCI -12
GRANTS         CLEAR      4   1  86 NW6       30.22R WCI  -6
SILVER CITY    CLEAR     18  10  73 N9        30.24S WCI   6

$$
NMZ407-409-411-412-281400-
SOUTHERN DESERTS

CITY           SKY/WX    TMP DP  RH WIND       PRES   REMARKS
LORDSBURG      FAIR      19  18  93 S3        30.26S
DEMING         CLEAR     18  15  88 SW3       30.25R
LAS CRUCES     CLEAR     20  17  88 NW6       30.25R WCI  13
HOLLOMAN AFB   PTCLDY    19  14  82 N3        30.22F
ALAMOGORDO     CLEAR     21  16  79 N3        30.23S
T OR C         CLEAR     21   8  57 NW5       30.21S WCI  15

$$
NMZ519>523-281400-
CENTRAL VALLEYS/CENTRAL HIGHLANDS

CITY           SKY/WX    TMP DP  RH WIND       PRES   REMARKS
ALBUQUERQUE    CLEAR     18   8  65 CALM      30.22R
DOUBLE EAGLE   CLEAR     16   7  67 W8        30.20R WCI   5
MORIARTY ARPT  FAIR      13   6  73 NW8       30.15R WCI   2
CLINES CORNERS PTCLDY    11   4  73 NW25      30.02S WCI -10
BELEN          FAIR      11   7  84 NW8       30.23R WCI  -1
SOCORRO        FAIR      13   6  73 CALM      30.24R

$$
NMZ524>526-539-540-281400-
SOUTHCENTRAL MOUNTAINS

CITY           SKY/WX    TMP DP  RH WIND       PRES   REMARKS
RUIDOSO        PTCLDY    18   5  57 NW8       30.11F WCI   7

$$
NMZ527>531-281400-
NORTHEAST HIGHLANDS/NORTHEAST PLAINS

CITY           SKY/WX    TMP DP  RH WIND       PRES   REMARKS
LAS VEGAS      PTCLDY    17   1  49 NW5       29.98S WCI  10
RATON          PTCLDY     0  -4  83 NE6       29.98S WCI -12
CLAYTON        PTCLDY    18   6  59 W10       29.98F WCI   6

$$
NMZ532>537-281400-
EASTCENTRAL PLAINS

CITY           SKY/WX    TMP DP  RH WIND       PRES   REMARKS
TUCUMCARI      PTCLDY    14  10  84 W8        30.05S WCI   3
CANNON AFB     CLEAR     16  11  78 SW8       30.08S WCI   6
CLOVIS AIRPORT PTCLDY    14  10  85 SW10      30.07S WCI   1

$$
NMZ028-029-538-281400-
SOUTHEAST PLAINS

CITY           SKY/WX    TMP DP  RH WIND       PRES   REMARKS
ROSWELL        CLEAR     16  10  77 NW3       30.16S
ARTESIA        PTCLDY    23  21  93 S5        30.18S WCI  17
CARLSBAD       CLEAR     29  22  75 CALM      30.18S
HOBBS          CLEAR     27  27 100 SW9       30.18R WCI  17


$$



USA.gov is the U.S. government's official web portal to all federal, state and local government web resources and services.